Change the Weather History Date:

Friday, November 22, 2013

  Actual Average (KLBX) Record (KLBX)
Temperature  
Mean Temperature 60 °F -  
Max Temperature 75 °F 68 °F 82 °F (2003)
Min Temperature 44 °F 51 °F 36 °F (2005)
Degree Days  
Heating Degree Days 6    
Growing Degree Days 10 (Base 50)    
Moisture  
Dew Point 57 °F    
Average Humidity 96    
Maximum Humidity 98    
Minimum Humidity 91    
Precipitation  
Precipitation 0.51 in - - ()
Sea Level Pressure  
Sea Level Pressure 30.16 in    
Wind  
Wind Speed 9 mph (NNE)    
Max Wind Speed 20 mph    
Max Gust Speed 28 mph    
Visibility 6 miles    
Events Rain    
Averages and records for this station are not official NWS values.
T = Trace of Precipitation, MM = Missing Value Source: NWS Daily Summary

Daily Weather History Graph

Daily Weather History Graph

Search for Another Location

Airport or City:

Trip Planner

Search our weather history database for the weather conditions in past years. The results will help you decide how hot, cold, wet, or windy it might be!

Date:

Astronomy

Nov. 22, 2013 Rise Set
Actual Time 6:52 AM CST 5:26 PM CST
Civil Twilight 6:27 AM CST 5:51 PM CST
Nautical Twilight 5:58 AM CST 6:20 PM CST
Astronomical Twilight 5:29 AM CST 6:49 PM CST
Moon 9:53 PM CST (11/22) 10:41 AM CST (11/22)
Length of Visible Light 11h 24m
Length of Day
10h 33m
Waning Gibbous, 78% of the Moon is Illuminated
Nov 22
Waning Gibbous
Nov 25
Last Quarter
Dec 2
New
Dec 9
First Quarter
Dec 17
Full

Hourly Weather History & Observations

Time (CST) Temp. Windchill Dew Point Humidity Pressure Visibility Wind Dir Wind Speed Gust Speed Precip Events Conditions
12:15 AM 73.4 °F - 72.5 °F 97% 30.06 in 5.0 mi ESE 5.8 mph - N/A   Clear
12:35 AM 73.4 °F - 72.5 °F 97% 30.05 in 5.0 mi ESE 5.8 mph - N/A   Clear
12:55 AM 73.4 °F - 72.5 °F 97% 30.06 in 5.0 mi ESE 5.8 mph - N/A   Clear
1:15 AM 73.4 °F - 72.5 °F 97% 30.06 in 4.0 mi ESE 5.8 mph - N/A   Scattered Clouds
1:35 AM 73.4 °F - 72.5 °F 97% 30.06 in 5.0 mi East 4.6 mph - N/A   Mostly Cloudy
1:55 AM 73.6 °F - 72.9 °F 98% 30.06 in 5.0 mi East 5.8 mph - N/A   Overcast
2:15 AM 73.6 °F - 72.7 °F 97% 30.06 in 4.0 mi East 5.8 mph - N/A   Overcast
2:35 AM 73.9 °F - 73.0 °F 97% 30.06 in 5.0 mi East 4.6 mph - N/A   Overcast
2:55 AM 74.3 °F - 73.4 °F 97% 30.06 in 4.0 mi East 4.6 mph - N/A   Overcast
3:15 AM 74.3 °F - 73.4 °F 97% 30.05 in 4.0 mi ESE 4.6 mph - N/A   Overcast
3:35 AM 74.3 °F - 73.4 °F 97% 30.05 in 4.0 mi East 5.8 mph - N/A   Overcast
3:55 AM 74.3 °F - 73.6 °F 98% 30.05 in 4.0 mi ESE 3.5 mph - N/A   Overcast
4:15 AM 74.3 °F - 73.4 °F 97% 30.05 in 4.0 mi East 4.6 mph - N/A   Overcast
4:35 AM 74.3 °F - 73.4 °F 97% 30.06 in 4.0 mi East 5.8 mph - N/A   Overcast
4:55 AM 74.3 °F - 73.4 °F 97% 30.06 in 4.0 mi Calm Calm - N/A   Overcast
5:15 AM 74.1 °F - 73.2 °F 97% 30.06 in 3.0 mi East 4.6 mph - N/A   Overcast
5:35 AM 73.9 °F - 73.0 °F 97% 30.07 in 3.0 mi East 5.8 mph - N/A   Overcast
5:55 AM 74.3 °F - 73.4 °F 97% 30.07 in 2.0 mi East 4.6 mph - N/A   Overcast
6:15 AM 74.3 °F - 73.6 °F 98% 30.07 in 1.0 mi East 5.8 mph - N/A   Overcast
6:35 AM 74.5 °F - 73.8 °F 98% 30.08 in 1.5 mi East 3.5 mph - N/A   Overcast
6:55 AM 74.7 °F - 73.9 °F 98% 30.09 in 2.5 mi ENE 5.8 mph - N/A   Overcast
7:15 AM 74.8 °F - 74.3 °F 98% 30.09 in 1.8 mi East 4.6 mph - N/A   Overcast
7:35 AM 75.0 °F - 74.5 °F 98% 30.10 in 1.8 mi East 5.8 mph - N/A   Overcast
7:55 AM 75.7 °F - 75.0 °F 98% 30.11 in 3.0 mi East 4.6 mph - N/A   Overcast
8:15 AM 60.8 °F - 59.0 °F 94% 30.14 in 10.0 mi NNW 13.8 mph 24.2 mph N/A   Overcast
8:35 AM 59.4 °F - 57.9 °F 95% 30.15 in 10.0 mi North 18.4 mph 26.5 mph N/A   Overcast
8:55 AM 57.6 °F - 56.1 °F 95% 30.16 in 10.0 mi North 15.0 mph - 0.03 in Rain Light Rain
9:15 AM 56.7 °F - 55.4 °F 96% 30.20 in 7.0 mi North 10.4 mph 17.3 mph 0.02 in Rain Heavy Rain
9:35 AM 56.1 °F - 55.0 °F 96% 30.20 in 10.0 mi NNE 5.8 mph - 0.04 in Rain Rain
9:55 AM 55.4 °F - 54.5 °F 97% 30.21 in 1.5 mi North 11.5 mph - 0.44 in Rain Heavy Rain
10:15 AM 54.0 °F - 53.1 °F 97% 30.22 in 5.0 mi North 16.1 mph 24.2 mph 0.04 in Rain Rain
10:35 AM 52.9 °F - 52.0 °F 97% 30.23 in 10.0 mi North 13.8 mph 18.4 mph 0.04 in Rain Light Rain
10:55 AM 52.9 °F - 51.8 °F 96% 30.20 in 10.0 mi North 12.7 mph 18.4 mph 0.04 in Rain Light Rain
11:15 AM 52.9 °F - 51.8 °F 96% 30.20 in 10.0 mi North 12.7 mph 19.6 mph N/A Rain Light Rain
11:35 AM 53.1 °F - 52.0 °F 96% 30.20 in 10.0 mi NNW 11.5 mph - N/A   Overcast
11:55 AM 53.4 °F - 52.3 °F 96% 30.20 in 10.0 mi NNW 13.8 mph 19.6 mph N/A   Overcast
12:15 PM 53.6 °F - 52.5 °F 96% 30.19 in 10.0 mi North 16.1 mph - N/A   Overcast
12:35 PM 53.1 °F - 51.8 °F 95% 30.19 in 10.0 mi North 16.1 mph 20.7 mph N/A   Overcast
12:55 PM 53.1 °F - 51.8 °F 95% 30.20 in 10.0 mi North 13.8 mph 17.3 mph N/A   Overcast
1:15 PM 53.1 °F - 51.8 °F 95% 30.18 in 10.0 mi North 15.0 mph - N/A   Overcast
1:35 PM 53.4 °F - 52.0 °F 95% 30.17 in 10.0 mi NNW 12.7 mph - N/A   Overcast
1:55 PM 53.4 °F - 51.6 °F 94% 30.15 in 10.0 mi North 16.1 mph 21.9 mph N/A   Overcast
2:15 PM 52.9 °F - 51.1 °F 94% 30.17 in 10.0 mi North 15.0 mph 19.6 mph N/A   Overcast
2:35 PM 52.7 °F - 50.7 °F 93% 30.16 in 10.0 mi NNW 13.8 mph - N/A   Overcast
2:55 PM 52.7 °F - 50.5 °F 92% 30.16 in 10.0 mi NNW 16.1 mph - N/A   Overcast
3:15 PM 52.5 °F - 50.2 °F 92% 30.16 in 10.0 mi NNW 12.7 mph - N/A   Overcast
3:35 PM 52.7 °F - 50.2 °F 91% 30.18 in 10.0 mi North 11.5 mph - N/A   Overcast
3:55 PM 52.3 °F - 50.0 °F 92% 30.18 in 10.0 mi North 17.3 mph 24.2 mph N/A   Overcast
4:15 PM 52.0 °F - 49.6 °F 92% 30.18 in 10.0 mi North 16.1 mph 21.9 mph N/A   Overcast
4:35 PM 51.6 °F - 49.3 °F 92% 30.19 in 10.0 mi North 18.4 mph 24.2 mph N/A   Overcast
4:55 PM 51.3 °F - 48.9 °F 92% 30.19 in 10.0 mi NNW 17.3 mph - N/A   Overcast
5:15 PM 50.5 °F - 48.4 °F 92% 30.20 in 10.0 mi North 13.8 mph 24.2 mph N/A   Overcast
5:35 PM 49.8 °F - 47.8 °F 93% 30.20 in 10.0 mi NNW 15.0 mph 27.6 mph N/A   Overcast
5:55 PM 49.3 °F - 47.5 °F 94% 30.21 in 10.0 mi North 15.0 mph 25.3 mph N/A   Overcast
6:15 PM 48.6 °F - 46.9 °F 94% 30.22 in 7.0 mi North 17.3 mph 23.0 mph N/A   Overcast
6:35 PM 48.2 °F - 46.8 °F 95% 30.22 in 7.0 mi North 12.7 mph 26.5 mph N/A   Overcast
6:55 PM 47.8 °F - 46.4 °F 95% 30.22 in 5.0 mi NNW 15.0 mph 27.6 mph N/A   Overcast
7:15 PM 47.3 °F - 46.0 °F 95% 30.23 in 5.0 mi NNW 16.1 mph - N/A   Overcast
7:35 PM 47.3 °F - 46.2 °F 96% 30.24 in 4.0 mi North 17.3 mph 21.9 mph N/A   Overcast
7:55 PM 46.9 °F - 45.9 °F 96% 30.23 in 4.0 mi North 17.3 mph 23.0 mph N/A   Overcast
8:15 PM 46.6 °F - 45.3 °F 95% 30.25 in 4.0 mi NNW 12.7 mph 20.7 mph N/A   Overcast
8:35 PM 46.2 °F 39.8 °F 45.1 °F 96% 30.26 in 3.0 mi NNW 15.0 mph 23.0 mph N/A   Overcast
8:55 PM 45.7 °F 38.0 °F 44.8 °F 97% 30.26 in 3.0 mi NNW 19.6 mph 24.2 mph N/A   Overcast
9:15 PM 45.5 °F 38.3 °F 44.2 °F 95% 30.27 in 3.0 mi NNW 17.3 mph 25.3 mph N/A   Overcast
9:35 PM 45.3 °F 38.4 °F 44.2 °F 96% 30.27 in 2.5 mi NNW 16.1 mph 20.7 mph N/A   Overcast
9:55 PM 45.1 °F 39.1 °F 44.1 °F 96% 30.27 in 2.5 mi North 12.7 mph 24.2 mph N/A   Overcast
10:15 PM 44.8 °F 37.7 °F 43.9 °F 97% 30.26 in 3.0 mi NNW 16.1 mph 19.6 mph N/A   Overcast
10:35 PM 44.6 °F 37.4 °F 43.7 °F 97% 30.27 in 3.0 mi NNW 16.1 mph 20.7 mph N/A   Overcast
10:55 PM 44.6 °F 37.4 °F 43.7 °F 97% 30.26 in 4.0 mi North 16.1 mph 24.2 mph N/A   Overcast
11:15 PM 44.6 °F 36.6 °F 43.7 °F 97% 30.26 in 4.0 mi NNW 19.6 mph 25.3 mph N/A   Overcast
11:35 PM 44.6 °F 37.8 °F 43.7 °F 97% 30.26 in 4.0 mi North 15.0 mph 20.7 mph N/A   Overcast
11:55 PM 44.2 °F 36.7 °F 43.3 °F 97% 30.26 in 5.0 mi NNW 17.3 mph 21.9 mph N/A   Overcast